Regional Weather Roundup
Issued by NWS Cleveland, OH

Home | Current Version | Previous Version | Graphics & Text | Print | Product List | Glossary On
Versions: 1 2 3 4 5 6 7 8 9 10 11 12 13 14 15 16 17 18 19 20 21 22 23 24 25 26 27 28 29 30 31 32 33 34 35 36 37 38 39 40 41 42 43 44 45 46 47 48 49 50
000
ASUS41 KCLE 010500
RWRCLE
OHIO REGIONAL WEATHER ROUNDUP
NATIONAL WEATHER SERVICE WILMINGTON, OH
100 AM EDT MON SEP 01 2014

NOTE: "FAIR" INDICATES FEW OR NO CLOUDS BELOW 12,000 FEET WITH NO
SIGNIFICANT WEATHER AND/OR OBSTRUCTIONS TO VISIBILITY.

OHZ001>008-015>018-024>027-034-035-043-044-010600-
   NORTHWEST OHIO

CITY           SKY/WX    TMP DP  RH WIND       PRES   REMARKS
DEFIANCE       PTCLDY    70  66  87 S3        29.95R
FINDLAY        PTCLDY    71  68  90 S8        29.95F
TOLEDO EXPRESS CLEAR     71  69  93 S3        29.94R
TOLEDO METCALF CLEAR     73  68  84 S9        29.95R
LIMA           MOCLDY    72  69  90 S6        29.97F
$$

OHZ009>014-019>023-028>033-038-089-010600-
   NORTHEAST OHIO

CITY           SKY/WX    TMP DP  RH WIND       PRES   REMARKS
CLE-HOPKINS    PTCLDY    73  69  87 S9        29.99S
CLE-LAKEFRONT  CLEAR     74  69  85 S9        29.95S
CUY CO. ARPT   NOT AVBL
LORAIN-ELYRIA  CLEAR     75  69  81 S8        29.98S
ASHTABULA      CLOUDY    70  69  97 S6        30.00S FOG
AKRON-CANTON   CLOUDY    73  69  87 SW10      30.01S
WOOSTER        NOT AVBL
MANSFIELD      CLEAR     71  70  96 S10       30.00F
YOUNGSTOWN     MOCLDY    70  68  93 S7        30.01S FOG
$$

OHZ042-051>053-060>062-070>072-077>081-010600-
  SOUTHWEST OHIO

CITY           SKY/WX    TMP DP  RH WIND       PRES   REMARKS
CINC-COVINGTON PTCLDY    71  69  93 S5        30.00S
CINC-LUNKEN    CLEAR     69  69 100 SW5       30.00S
HAMILTON       CLEAR     69  68  96 CALM      30.00S
DAYTON         NOT AVBL
WRIGHT-PAT AFB CLEAR     71  70  96 S7        29.99S
DAYTON GENERAL CLEAR     70  69  97 S6        29.99S
WILMINGTON     FOG       69  68  96 SW7       30.00S VSB 1/2
$$

OHZ036-037-039>041-045>050-054>059-063>069-073>076-082>088-010600-
  CENTRAL AND SOUTHEAST OHIO

CITY           SKY/WX    TMP DP  RH WIND       PRES   REMARKS
COLUMBUS       MOCLDY    73  68  84 SE3       29.99F
OSU AIRPORT    PTCLDY    71  68  90 SW5       30.00S
BOLTON FIELD   NOT AVBL
RICKENBACK AFB NOT AVBL
NEWARK         CLEAR     69  67  93 CALM      30.00S
MARION         CLEAR     71  68  90 S8        30.00R
LANCASTER      CLEAR     70  67  90 S3        30.01S
ZANESVILLE     MOCLDY    69  67  93 S5        30.01F
NEW PHILLY     CLOUDY    71  70  96 SE3       30.02S
$$


USA.gov is the U.S. government's official web portal to all federal, state and local government web resources and services.